This demonstration page uses our WeatherBlox Daily Observations layout. Learn more.

Left ArrowRight Arrow

44.89941, -97.11507

Hourly Observations for June 6, 2018

Temp ( °F °C ) Dew Point ( °F °C ) Humidity (%) Winds ( mph kmh ) Pressure ( in mb ) Visibility ( mi km ) Precip ( " mm )
12:53 am 00:53 Clear 76 24.4 59 15 56 56 S 12 19 29.63 1003 10 16 0.00 0.00
1:49 am 01:49 Partly Cloudy with Nearby Thunderstorms 75 24 63 17 65 65 WNW 33 54 29.71 1006 5 8 0.00 0.03
1:53 am 01:53 Windy with Storms Likely 72 22.2 62 16.7 71 71 WNW 26 43 29.74 1007 4 6 0.00 0.03
2:00 am 02:00 Windy with Storms Likely 70 21.1 62 16.7 76 76 WNW 22 35 29.71 1006 7 11 0.00 0.03
2:29 am 02:29 Mostly Cloudy 67 19.4 62 16.7 84 84 NW 13 20 29.71 1006 10 16 0.09 2.29
2:53 am 02:53 Mostly Clear 68 20 64 17.8 87 87 NW 13 20 29.77 1008 10 16 0.09 2.29
3:53 am 03:53 Mostly Clear 68 20 64 17.8 87 87 W 3 6 29.73 1007 10 16 0.00 0.00
4:53 am 04:53 Clear 67 19.4 63 17.2 87 87 E 8 13 29.71 1006 10 16 0.00 0.00
5:53 am 05:53 Sunny 62 16.7 60 15.6 93 93 ENE 13 20 29.77 1008 10 16 0.00 0.00
6:53 am 06:53 Sunny 62 16.7 61 16.1 96 96 NE 12 19 29.80 1009 10 16 0.00 0.00
7:53 am 07:53 Partly Cloudy 63 17.2 61 16.1 93 93 S 9 15 29.87 1012 10 16 0.00 0.00
8:16 am 08:16 Mostly Cloudy 64 17.8 62 16.7 93 93 SSE 12 19 29.88 1012 10 16 0.00 0.00
8:35 am 08:35 Mostly Cloudy 64 17.8 61 16.1 90 90 ESE 7 11 29.88 1012 10 16 0.00 0.00
8:53 am 08:53 Cloudy 64 17.8 61 16.1 90 90 SSE 6 9 29.87 1012 10 16 0.00 0.00
9:22 am 09:22 Mostly Cloudy 65 18.3 61 16.1 87 87 SE 6 9 29.88 1012 10 16 0.00 0.00
9:53 am 09:53 Mostly Cloudy 67 19.4 62 16.7 84 84 ENE 3 6 29.88 1012 10 16 0.00 0.00
10:01 am 10:01 Partly Cloudy 67 19.4 62 16.7 84 84 ENE 6 9 29.88 1012 10 16 0.00 0.00
10:42 am 10:42 Mostly Cloudy 68 20 62 16.7 81 81 WSW 3 6 29.91 1013 10 16 0.00 0.00
10:49 am 10:49 Partly Cloudy 70 21 63 17 78 78 Calm 29.88 1012 10 16 0.00 0.00
10:53 am 10:53 Mostly Cloudy 69 20.6 62 16.7 78 78 VRB 3 6 29.90 1013 10 16 0.00 0.00
11:12 am 11:12 Partly Cloudy 69 20.6 63 17.2 81 81 WNW 6 9 29.88 1012 10 16 0.00 0.00
11:53 am 11:53 Mostly Cloudy 70 21.1 63 17.2 79 79 NNW 5 7 29.91 1013 10 16 0.00 0.00
12:53 pm 12:53 Cloudy 73 22.8 63 17.2 71 71 N 10 17 29.92 1013 10 16 0.00 0.00
1:53 pm 13:53 Cloudy 72 22.2 63 17.2 73 73 NNW 9 15 29.93 1014 10 16 0.00 0.00
2:53 pm 14:53 Mostly Cloudy 76 24.4 63 17.2 64 64 N 10 17 29.92 1013 10 16 0.00 0.00
3:15 pm 15:15 Partly Cloudy 76 24.4 61 16.1 60 60 N 13 20 29.88 1012 10 16 0.00 0.00
3:53 pm 15:53 Sunny 76 24.4 59 15 56 56 NNE 15 24 29.91 1013 10 16 0.00 0.00
4:53 pm 16:53 Sunny 75 23.9 56 13.3 52 52 NNE 10 17 29.92 1013 10 16 0.00 0.00
5:53 pm 17:53 Partly Cloudy with Light Rain 72 22.2 55 12.8 55 55 NE 15 24 29.91 1013 10 16 0.00 0.03
6:53 pm 18:53 Sunny 70 21.1 56 13.3 61 61 N 10 17 29.93 1014 10 16 0.00 0.03
7:53 pm 19:53 Mostly Sunny 71 21.7 55 12.8 57 57 NNE 9 15 29.91 1013 10 16 0.00 0.03
8:53 pm 20:53 Sunny 66 18.9 54 12.2 65 65 NNE 7 11 29.94 1014 10 16 0.00 0.00
9:53 pm 21:53 Clear 63 17.2 52 11.1 68 68 NE 9 15 29.95 1014 10 16 0.00 0.00
10:53 pm 22:53 Clear 63 17.2 51 10.6 65 65 ENE 9 15 29.96 1015 10 16 0.00 0.00
11:53 pm 23:53 Partly Cloudy 62 16.7 50 10 65 65 ENE 9 15 29.99 1016 10 16 0.00 0.00

Powered by AerisWeather